Regional Weather Roundup
Issued by NWS

Home | Current Version | Previous Version | Graphics & Text | Print | Product List | Glossary On
Versions: 1 2 3 4 5 6 7 8 9 10 11 12 13 14 15 16 17 18 19 20 21 22 23 24 25 26 27 28 29 30 31 32 33 34 35 36 37 38 39 40 41 42 43 44 45 46 47 48 49 50
000
ASUS45 KTFX 010219
RWRMT
MONTANA HOURLY WEATHER ROUNDUP
NATIONAL WEATHER SERVICE GREAT FALLS MT
719 PM MST SAT JAN 31 2015

NOTE: "FAIR" INDICATES FEW OR NO CLOUDS BELOW 12000 FEET WITH NO
SIGNIFICANT WEATHER AND/OR OBSTRUCTIONS TO VISIBILITY.

* THESE STATIONS ARE NOT UNDER NWS QUALITY CONTROL. THEY DO NOT
   REPORT WEATHER SUCH AS PRECIPITATION OR FOG.

MTZ001>007-043-010300-
WEST OF THE DIVIDE
CITY           SKY/WX    TMP DP  RH WIND       PRES   REMARKS
KALISPELL      CLOUDY    27  16  63 N14       30.23R WCI  16
MISSOULA       CLOUDY    34  25  70 N7        30.19R WCI  28
BUTTE          CLEAR     25  18  75 NE5       30.10R WCI  19
MULLAN PASS    CLOUDY    21  18  88 S3        30.10S
* ANACONDA     CLEAR     21  16  81 E3         N/A
* ESSEX        N/A       20   7  57 SE10G16    N/A   WCI   9
* EUREKA APT   PTCLDY    30  25  82 CALM      30.25F
* HAMILTON APT CLEAR     34  23  64 E2        30.15R
* LIBBY APT    PTCLDY    32  28  85 CALM      30.24S
* LINCOLN      N/A       15   6  67 NE4G10     N/A
* LOOKOUT PASS N/A       24  24 100 N/A        N/A
* POLSON       N/A       26  25  96 N/A        N/A
* RONAN APT    PTCLDY    28  28 100 N/A        N/A
* SEELEY LAKE  N/A       27  17  66 SW2        N/A
* THOMP F APT  PTCLDY    18  17  96 NE2        N/A
* YAAK HILL    N/A       33  21  61 VRB2       N/A
$$

MTZ008-052>055-010300-
SOUTHWEST MONTANA
CITY           SKY/WX    TMP DP  RH WIND       PRES   REMARKS
BOZEMAN        CLOUDY    21  12  68 N5        30.19R WCI  14
DILLON         CLEAR     21  14  74 NE12      30.09R WCI   9
* W YELLOWSTON PTCLDY    20  16  84 SW5G12     N/A   WCI  13
* THREE FORKS  PTCLDY    19  14  81 N/A        N/A
* BOULDER HILL N/A        9   5  84 N14        N/A   WCI  -7
* MONIDA PASS  N/A       22  11  62 NW13       N/A   WCI  10
* RAYNOLDS PAS N/A       20  18  92 NW12       N/A   WCI   8
* WHITEHALL    N/A       23   9  55 E6G15      N/A   WCI  16
* WISE RIVER   N/A       32  10  40 W8         N/A   WCI  25
$$

MTZ009>010-012-014-046-048-049-054-010300-
EAST SLOPES AND CENTRAL MONTANA
CITY           SKY/WX    TMP DP  RH WIND       PRES   REMARKS
CUT BANK       CLOUDY     7   1  76 N8        30.32R WCI  -6
GREAT FALLS    CLOUDY     7   3  83 CALM      30.32F
HELENA         CLOUDY    18   9  68 NW9       30.27S WCI   7
MALMSTROM AFB  LGT SNOW   9   5  84 NW5       30.35S
* CONRAD       PTCLDY    10   3  73 NW7        N/A   WCI  -1
* DEARBORN     N/A       14   8  77 VRB7       N/A   WCI   4
* EAST GLACIER N/A        6   2  83 S2         N/A
* MONARCH      N/A        3  -1  83 W4         N/A
* PENDROY      N/A        7   4  87 N9         N/A   WCI  -6
* ROGERS PASS  N/A        7   3  83 S1         N/A
* SWEET GRASS  N/A        3   0  87 N6         N/A   WCI  -8
* WHITE SULPH  N/A       10   2  70 NW11G19    N/A   WCI  -4
$$

MTZ011-013-016-021-035-040-045-047-050-051-010300-
NORTH CENTRAL MONTANA
CITY           SKY/WX    TMP DP  RH WIND       PRES   REMARKS
HAVRE          LGT SNOW   9   3  76 NE8       30.42R VSB 3    WCI  -3
LEWISTOWN      CLOUDY    10   5  80 NW7       30.26R WCI  -1
* N BAR RANCH  CLOUDY    10   3  73 NW18G24   30.22R WCI  -8
* CHINOOK      MOCLDY     9   3  76 NE5       30.45R VSB 3
* CHESTER      N/A        7  -1  69 NE4        N/A
* DENTON       N/A        9   6  87 NW6        N/A   WCI  -1
* GEYSER       N/A        7   4  87 W15G20     N/A   WCI -10
* JUDITH GAP   N/A        9   7  91 VRB15G20    N/A   WCI  -8
* LOMA         N/A       10   5  80 NW8        N/A   WCI  -2
$$

MTZ017>020-022>027-061-062-010300-
NORTHEAST MONTANA
CITY           SKY/WX    TMP DP  RH WIND       PRES   REMARKS
GLASGOW        LGT SNOW   7   0  73 NE8       30.41R VSB 1 1/2 WCI  -6
GLENDIVE       MOCLDY     5   0  80 NE16      30.32R WCI -14
JORDAN         MOCLDY     9   3  76 NE9       30.33R WCI  -4
SIDNEY         CLOUDY     3   0  87 N9        30.43R VSB 3/4  WCI -11
WOLF POINT     LGT SNOW   7   0  73 NE15      30.44R WCI -10
* BEAVER HILL  N/A        6   3  87 NE11       N/A   WCI  -9
* CIRCLE       N/A        6   3  87 NE10G15    N/A   WCI  -9
* LINDSAY DVD  N/A        3   0  87 NE13       N/A   WCI -14
* NAVAJO       N/A        0  -5  79 NE10       N/A   WCI -16
* PLENTYWOOD A MOCLDY     0  -8  68 NE8       30.43R WCI -14
* POPLAR APT   MOCLDY     3   0  87 N/A       30.43R VSB 1
* SACO         N/A        6   1  80 N10        N/A   WCI  -9
* SCOBEY APT   PTCLDY     1  -9  62 N10        N/A   WCI -15
$$

MTZ028>042-056>058-010300-
SOUTHCENTRAL AND SOUTHEAST MONTANA
CITY           SKY/WX    TMP DP  RH WIND       PRES   REMARKS
BAKER          LGT SNOW   7   3  83 E16       30.22R VSB 2    WCI -11
BILLINGS       LGT SNOW  18  10  71 NE14      30.25R WCI   4
LIVINGSTON     CLOUDY    19   7  59 NW12      30.18R WCI   6
MILES CITY     LGT SNOW  10   7  88 N18       30.27R WCI  -8
* BIG TIMBER A CLOUDY    16  10  77 NE5       30.21R VSB 2 1/2 WCI   8
* FORSYTH APT  PTCLDY    12   9  88 NW10      30.29R WCI  -1
* LAUREL APT   CLOUDY    19   7  59 N8         N/A   WCI   9
* ROUNDUP APT  MOCLDY    12   3  67 N13G20     N/A   WCI  -3
* ALZADA       N/A       19  17  92 NE8        N/A   WCI   9
* HYSHAM       N/A       13   9  84 NE8G14     N/A   WCI   2
* LAME DEER    N/A       14  12  92 NW12G21    N/A
* REED POINT   N/A       20  15  81 E2         N/A
* ROSCOE HILL  N/A       15  11  84 NW6G11     N/A   WCI   6
$$

REGIONAL REPORTS...DAKOTAS
CITY           SKY/WX    TMP DP  RH WIND       PRES   REMARKS
WILLISTON      LGT SNOW   0  -6  75 NE13      30.44R VSB 2 1/2 WCI -18
DICKINSON      LGT SNOW   1  -2  87 NE15      30.25R VSB 1 1/4 WCI -18
BEACH          LGT SNOW   5   3  91 E16       30.27R VSB 1 1/4 WCI -14
CROSBY         CLEAR     -2 -11  65 E8        30.48S WCI -17
TIOGA          MOCLDY    -4  -9  79 NE13      30.44R WCI -23
WATFORD CITY   LGT SNOW   0  -4  83 NE13      30.38R VSB 2    WCI -18
BISMARCK       LGT SNOW   1  -4  79 NE17      30.38R VSB 1 1/2 WCI -19
GRAND FORKS    PTCLDY    -6 -15  64 N16       30.51R WCI -28
FARGO          MOCLDY     3  -8  60 N20       30.40R WCI -18
BUFFALO SD     CLOUDY    12   9  88 NE20G26   30.07R WCI  -6
RAPID CITY     FOG       19  18  96 NE10      30.06R VSB M1/4 WCI   8
$$

REGIONAL REPORTS...WYOMING/IDAHO/WASHINGTON
CITY           SKY/WX    TMP DP  RH WIND       PRES   REMARKS
GILLETTE       CLOUDY    25  19  78 NW23G35   30.03R WCI  10
SHERIDAN       LGT SNOW  23  18  81 NW22G30   30.15R WCI   8
CODY           CLOUDY    19  19 100 N20       30.10R WCI   3
YELLOWSTONE LA PTCLDY    19   9  65 CALM      30.04R
SALMON         MOCLDY    19  14  81 CALM      30.21R
MULLAN PASS    CLOUDY    21  18  88 S3        30.10S
SAND POINT     CLOUDY    32  32 100 CALM      30.28S
SPOKANE        CLOUDY    30  28  92 CALM      30.28R
$$

REGIONAL REPORTS...ALBERTA
CITY           SKY/WX    TMP DP  RH WIND       PRES   REMARKS
CALGARY        FAIR       3  -2  79 S8        30.30F WCI -10
LETHBRIDGE     FAIR       0  -2  91 SE5       30.39S WCI -11
MEDICINE HAT   LGT SNOW   5   1  83 NE6       30.47S VSB 2 1/2 WCI  -6
EDMONTON       LGT SNOW   5   0  80 S8        30.41F WCI  -8
WATERTON GATE  N/A        0  -4  83 NE2        N/A
CARDSTON       N/A        3   1  91 S2         N/A
MILK RIVER     N/A       -4  -8  83 NW1        N/A
$$

REGIONAL REPORTS...SASKATCHEWAN
CITY           SKY/WX    TMP DP  RH WIND       PRES   REMARKS
SWIFT CURRENT  CLOUDY    -4  -8  83 E7        30.41F WCI -18
REGINA         MOCLDY    -6 -13  71 NE5       30.52S WCI -18
VAL MARIE      N/A        1  -2  87 NE10       N/A   WCI -15
ASSINIBOIA     N/A       -2  -8  75 NE8        N/A   WCI -17
CORONACH       N/A       -2  -6  83 N9         N/A   WCI -18

$$



USA.gov is the U.S. government's official web portal to all federal, state and local government web resources and services.